Time,TemperatureF,DewpointF,PressureIn,WindDirection,WindDirectionDegrees,WindSpeedMPH,WindSpeedGustMPH,Humidity,HourlyPrecipIn,Conditions,Clouds,dailyrainin,SolarRadiationWatts/m^2,SoftwareType,DateUTC
2014-01-26 00:22:00,52.0,48.0,-100.00,WSW,246,3.0,-999.0,85,0.00,,,-99.99,0.700000,,2014-01-26 05:22:00,
2014-01-26 00:32:00,52.0,48.0,-100.00,WSW,246,3.0,-999.0,85,0.00,,,-99.99,0.700000,,2014-01-26 05:32:00,
2014-01-26 00:52:00,51.0,47.0,-100.00,WSW,250,1.0,-999.0,88,0.00,,,-99.99,0.600000,,2014-01-26 05:52:00,
2014-01-26 01:22:00,48.0,46.0,-100.00,NNE,21,1.0,-999.0,92,0.00,,,-99.99,0.600000,,2014-01-26 06:22:00,
2014-01-26 01:52:00,50.0,48.0,-100.00,NW,308,2.0,-999.0,93,0.00,,,-99.99,0.700000,,2014-01-26 06:52:00,
2014-01-26 02:22:00,51.0,49.0,-100.00,WNW,289,2.0,-999.0,91,0.00,,,-99.99,0.700000,,2014-01-26 07:22:00,
2014-01-26 02:53:00,52.0,49.0,-100.00,West,265,2.0,-999.0,91,0.00,,,-99.99,0.700000,,2014-01-26 07:53:00,
2014-01-26 03:22:00,52.0,49.0,-100.00,SW,214,2.0,-999.0,91,0.00,,,-99.99,0.700000,,2014-01-26 08:22:00,
2014-01-26 03:52:00,52.0,49.0,-100.00,SSW,199,2.0,-999.0,92,0.00,,,-99.99,0.700000,,2014-01-26 08:52:00,
2014-01-26 04:22:00,50.0,49.0,-100.00,South,179,2.0,-999.0,93,0.00,,,-99.99,0.600000,,2014-01-26 09:22:00,
2014-01-26 04:53:00,48.0,47.0,-100.00,SW,218,3.0,-999.0,95,0.00,,,-99.99,0.600000,,2014-01-26 09:53:00,
2014-01-26 05:53:00,45.0,45.0,-100.00,NW,311,1.0,-999.0,96,0.00,,,-99.99,0.700000,,2014-01-26 10:53:00,
2014-01-26 06:22:00,45.0,44.0,-100.00,NW,319,3.0,-999.0,97,0.00,,,-99.99,0.700000,,2014-01-26 11:22:00,
2014-01-26 06:52:00,44.0,43.0,-100.00,NW,322,1.0,-999.0,97,0.00,,,-99.99,0.700000,,2014-01-26 11:52:00,
2014-01-26 07:22:00,43.0,42.0,-100.00,ESE,108,2.0,-999.0,97,0.00,,,-99.99,0.900000,,2014-01-26 12:22:00,
2014-01-26 07:52:00,43.0,42.0,-100.00,SSW,212,1.0,-999.0,97,0.00,,,-99.99,7.600000,,2014-01-26 12:52:00,
2014-01-26 08:22:00,44.0,43.0,-100.00,SE,135,1.0,-999.0,97,0.00,,,-99.99,35.000000,,2014-01-26 13:22:00,
2014-01-26 08:52:00,45.0,45.0,-100.00,SSW,209,1.0,-999.0,97,0.00,,,-99.99,102.699997,,2014-01-26 13:52:00,
2014-01-26 09:22:00,47.0,47.0,-100.00,SSW,193,2.0,-999.0,97,0.00,,,-99.99,139.100006,,2014-01-26 14:22:00,
2014-01-26 09:52:00,49.0,48.0,-100.00,WNW,299,1.0,-999.0,97,0.00,,,-99.99,157.399994,,2014-01-26 14:52:00,
2014-01-26 10:22:00,50.0,49.0,-100.00,NW,310,2.0,-999.0,97,0.00,,,-99.99,197.000000,,2014-01-26 15:22:00,
2014-01-26 10:53:00,51.0,50.0,-100.00,NW,313,2.0,-999.0,97,0.00,,,-99.99,259.500000,,2014-01-26 15:53:00,
2014-01-26 11:23:00,53.0,51.0,-100.00,West,279,2.0,-999.0,91,0.00,,,-99.99,288.000000,,2014-01-26 16:23:00,
2014-01-26 11:53:00,56.0,51.0,-100.00,South,178,1.0,-999.0,84,0.00,,,-99.99,292.500000,,2014-01-26 16:53:00,
2014-01-26 12:23:00,57.0,51.0,-100.00,SSE,147,4.0,-999.0,81,0.00,,,-99.99,313.500000,,2014-01-26 17:23:00,
2014-01-26 12:52:00,58.0,51.0,-100.00,SE,146,3.0,-999.0,76,0.00,,,-99.99,384.100006,,2014-01-26 17:52:00,
2014-01-26 13:22:00,60.0,51.0,-100.00,SSW,193,4.0,-999.0,72,0.00,,,-99.99,476.899994,,2014-01-26 18:22:00,
2014-01-26 13:53:00,61.0,51.0,-100.00,SSW,201,3.0,-999.0,69,0.00,,,-99.99,334.100006,,2014-01-26 18:53:00,
2014-01-26 14:22:00,61.0,50.0,-100.00,SSE,159,4.0,-999.0,67,0.00,,,-99.99,344.700012,,2014-01-26 19:22:00,
2014-01-26 14:52:00,62.0,50.0,-100.00,South,171,2.0,-999.0,63,0.00,,,-99.99,442.200012,,2014-01-26 19:52:00,
2014-01-26 15:53:00,64.0,50.0,-100.00,WSW,249,5.0,-999.0,61,0.00,,,-99.99,520.799988,,2014-01-26 20:53:00,
2014-01-26 16:22:00,63.0,50.0,-100.00,SW,233,5.0,-999.0,60,0.00,,,-99.99,251.100006,,2014-01-26 21:22:00,
2014-01-26 16:54:00,63.0,50.0,-100.00,WSW,247,3.0,-999.0,62,0.00,,,-99.99,213.500000,,2014-01-26 21:54:00,
2014-01-26 17:23:00,64.0,50.0,-100.00,NW,313,3.0,-999.0,61,0.00,,,-99.99,163.399994,,2014-01-26 22:23:00,
2014-01-26 17:53:00,63.0,50.0,-100.00,SE,138,1.0,-999.0,61,0.00,,,-99.99,44.599998,,2014-01-26 22:53:00,
2014-01-26 18:22:00,59.0,53.0,-100.00,ESE,110,3.0,-999.0,78,0.00,,,-99.99,6.600000,,2014-01-26 23:22:00,
2014-01-26 18:53:00,56.0,52.0,-100.00,East,93,3.0,-999.0,86,0.00,,,-99.99,0.700000,,2014-01-26 23:53:00,
2014-01-26 19:22:00,56.0,52.0,-100.00,NNE,19,2.0,-999.0,85,0.00,,,-99.99,0.700000,,2014-01-27 00:22:00,
2014-01-26 19:52:00,57.0,53.0,-100.00,NE,51,3.0,-999.0,85,0.00,,,-99.99,0.700000,,2014-01-27 00:52:00,
2014-01-26 20:22:00,57.0,53.0,-100.00,East,101,4.0,-999.0,86,0.00,,,-99.99,0.800000,,2014-01-27 01:22:00,
2014-01-26 20:52:00,57.0,53.0,-100.00,ESE,118,2.0,-999.0,88,0.00,,,-99.99,0.800000,,2014-01-27 01:52:00,
2014-01-26 21:22:00,57.0,53.0,-100.00,SSW,198,2.0,-999.0,88,0.00,,,-99.99,0.800000,,2014-01-27 02:22:00,
2014-01-26 21:53:00,58.0,53.0,-100.00,SW,234,4.0,-999.0,85,0.00,,,-99.99,0.800000,,2014-01-27 02:53:00,
2014-01-26 22:22:00,58.0,53.0,-100.00,SW,235,3.0,-999.0,83,0.00,,,-99.99,0.800000,,2014-01-27 03:22:00,
2014-01-26 22:53:00,58.0,54.0,-100.00,WSW,243,2.0,-999.0,86,0.00,,,-99.99,0.800000,,2014-01-27 03:53:00,
2014-01-26 23:23:00,57.0,54.0,-100.00,NE,40,1.0,-999.0,88,0.00,,,-99.99,0.800000,,2014-01-27 04:23:00,
2014-01-26 23:53:00,57.0,54.0,-100.00,ESE,107,1.0,-999.0,90,0.00,,,-99.99,0.800000,,2014-01-27 04:53:00,